Wetbulb
57.88 58.52 58.78 58.86 58.95 59.12 59.08 59.32 59.92 60.24 60.59 60.76 60.85 61.17 60.91 60.80 59.67 61.24 57.55 61.49 63.40 67.86 63.96 58.45 59.14 57.65 58.01 57.16 59.98 60.55 53.25 51.13 53.50 54.21 56.63 60.36 59.99 61.86 62.27 58.69 57.97 65.15 67.36 68.19 70.30
57.48 58.21 58.58 58.88 59.08 59.20 59.29 59.56 59.85 59.97 60.20 60.48 60.84 60.61 60.37 60.60 60.37 58.97 64.26 67.69 68.73 66.85 57.47 58.05 56.10 57.02 55.09 55.29 58.01 55.62 52.68 53.29 56.75 56.93 56.26 58.45 59.18 60.27 59.44 58.16 57.13 62.27 67.05 66.84 66.97
57.34 58.08 58.55 58.83 58.97 59.40 59.40 59.60 59.65 60.00 60.24 60.28 60.20 60.32 60.23 60.07 58.36 58.54 66.15 66.65 68.58 64.65 58.98 59.83 58.77 57.29 53.84 55.68 55.30 55.76 52.66 56.01 55.71 56.68 56.99 56.50 58.08 60.09 56.96 54.99 57.34 59.72 63.57 63.82 64.84
57.78 58.00 58.28 58.51 58.68 59.03 59.34 59.51 59.74 60.37 60.32 60.02 59.86 60.06 60.36 60.27 52.01 57.80 69.63 68.04 68.58 60.98 60.01 59.15 56.99 54.72 53.57 53.63 55.95 52.28 54.91 55.62 55.39 55.51 55.28 55.14 59.32 56.98 56.32 55.38 58.90 61.90 64.07 63.79 63.53
57.58 57.61 57.91 58.10 58.47 58.79 59.05 59.34 59.60 59.69 59.60 59.42 59.77 60.42 59.96 56.38 56.44 60.00 69.48 67.45 60.82 60.42 59.96 57.19 55.78 55.13 53.19 55.07 55.45 53.06 54.28 54.94 55.40 55.14 55.66 56.56 55.35 55.54 55.61 57.41 57.93 61.36 63.18 62.90 63.35
57.65 57.47 57.70 57.98 58.41 58.43 58.55 58.41 58.34 58.41 58.91 59.51 60.11 59.72 60.54 53.44 60.38 60.68 60.35 60.16 60.75 60.08 58.20 57.83 56.22 57.20 55.14 54.94 54.08 55.62 55.18 54.42 54.93 54.91 55.00 53.65 54.12 54.69 56.16 57.91 56.56 60.10 61.08 62.33 62.93
57.97 57.56 57.63 57.97 58.23 58.22 58.32 57.77 57.56 58.04 59.07 60.15 60.86 60.41 58.53 57.37 60.42 61.04 59.89 59.09 59.51 58.90 56.93 58.64 58.19 55.73 56.27 53.67 56.30 55.01 52.38 53.61 53.62 54.26 53.44 54.51 51.78 52.14 57.26 57.41 55.38 57.27 59.28 61.61 63.07
57.63 57.31 57.27 57.76 58.09 58.26 58.32 57.84 57.52 58.32 59.58 60.57 61.03 59.33 57.16 59.77 61.04 59.34 59.94 58.81 59.49 59.58 58.36 59.19 58.93 56.55 55.48 56.92 54.00 51.56 51.98 48.17 52.42 53.43 53.43 52.50 47.66 53.55 57.03 55.42 53.80 55.12 57.72 60.46 62.32
57.10 56.82 57.05 57.13 57.76 58.23 57.87 57.16 57.84 59.07 60.18 61.11 60.14 59.11 56.73 61.81 56.31 59.16 59.24 56.85 58.18 58.36 58.64 58.45 57.38 54.63 55.15 51.43 50.09 50.53 46.13 48.00 49.82 53.87 53.04 51.69 49.00 54.98 56.88 56.02 55.10 55.78 56.83 59.65 61.75
56.78 56.49 56.54 56.85 57.42 57.41 56.69 56.92 58.93 59.30 61.27 61.17 60.26 55.89 58.21 55.26 57.84 58.20 59.53 57.56 55.93 56.74 55.62 55.04 53.33 51.60 52.02 50.53 44.34 47.00 47.57 49.20 48.72 52.14 52.76 50.97 50.01 55.72 57.21 56.10 55.77 56.00 56.75 58.73 60.81
56.40 55.99 56.07 56.60 56.83 56.51 57.71 61.11 58.45 56.71 59.42 56.20 56.93 56.51 55.57 58.02 59.02 57.65 58.37 57.56 57.18 55.55 51.55 54.66 50.04 47.98 50.30 51.69 51.40 50.46 49.21 48.42 50.92 53.50 51.77 50.50 50.14 52.42 56.77 57.03 56.23 55.24 56.68 58.43 60.97
55.79 55.87 56.13 56.40 56.48 56.47 58.61 60.28 59.00 60.75 55.39 57.91 57.05 56.84 57.99 58.30 54.98 56.33 58.38 54.40 54.77 51.37 54.29 51.77 49.36 51.68 52.72 51.69 50.69 50.30 48.53 47.78 51.31 53.19 51.80 51.23 50.04 53.46 54.76 56.42 56.63 56.40 56.48 57.16 61.32
54.83 55.09 55.84 56.09 56.04 59.05 61.61 58.67 61.79 61.69 56.72 55.84 56.47 55.97 55.59 57.18 55.03 55.07 56.63 55.71 52.64 51.65 51.94 49.99 51.57 53.44 51.72 50.09 48.23 48.26 47.61 48.29 49.12 52.02 52.69 51.27 49.18 50.49 53.74 56.74 57.21 57.01 58.24 59.00 61.41
54.44 54.89 55.52 54.93 57.29 63.02 61.54 61.48 64.00 63.52 53.85 52.54 53.64 55.80 56.71 57.08 53.34 57.46 57.93 55.38 53.22 50.76 52.26 51.24 53.73 51.31 50.23 49.43 50.53 47.45 52.07 51.19 49.46 48.40 44.51 50.99 43.10 50.82 53.26 54.67 55.68 56.74 57.78 59.21 60.95
54.10 54.87 55.34 52.75 60.92 60.64 60.62 62.68 64.41 63.26 45.25 54.63 54.44 59.51 57.98 54.49 55.18 55.21 58.38 56.91 53.11 52.25 51.98 50.38 51.54 50.41 49.37 50.42 52.23 49.39 52.27 51.08 50.49 48.67 47.78 47.61 45.10 48.25 53.25 53.07 54.57 56.13 57.95 59.50 61.18
53.85 54.61 54.08 59.08 61.12 62.99 63.35 63.07 62.37 52.24 45.21 51.79 53.85 52.37 52.49 53.80 53.55 55.42 55.11 57.07 56.48 53.48 53.98 52.43 54.85 53.08 51.90 52.99 53.18 53.10 50.66 49.96 49.93 47.94 42.72 47.35 45.31 46.20 49.71 52.04 54.27 56.86 58.07 59.08 60.32
53.40 53.61 55.82 63.26 61.09 63.59 63.25 60.17 51.17 47.45 56.58 51.30 50.86 52.62 52.02 51.70 51.77 52.37 52.54 52.66 51.05 48.64 49.16 52.33 52.81 53.56 53.70 50.48 52.34 51.63 49.69 43.00 42.12 42.26 40.44 48.59 44.69 45.81 53.18 54.94 53.83 56.57 57.57 58.86 60.30
52.19 51.48 61.00 64.19 64.92 64.08 61.75 55.44 46.62 52.32 51.52 54.92 53.00 52.68 50.44 52.11 51.86 52.28 51.83 50.46 53.95 52.63 49.83 47.30 45.68 51.94 54.12 51.66 49.50 50.13 50.43 43.75 37.23 38.85 42.30 48.39 43.30 46.36 53.14 54.74 55.66 55.69 56.53 58.97 59.17
51.34 64.05 64.38 66.50 64.45 63.61 58.00 50.13 50.36 52.94 54.13 52.10 52.72 49.91 50.44 52.31 52.07 52.14 52.08 51.53 53.03 54.11 48.51 47.34 47.43 53.97 53.91 53.75 52.27 49.46 47.71 51.62 46.79 47.18 42.62 45.54 46.88 51.45 53.17 53.09 53.97 54.21 54.91 55.90 57.45
58.51 61.16 62.73 65.71 65.05 61.86 55.46 49.39 53.06 54.96 54.02 52.78 48.80 52.11 49.67 51.28 51.17 51.51 51.72 54.57 53.09 54.78 55.43 51.13 45.93 51.94 53.16 53.54 53.57 50.78 52.03 45.43 46.42 38.76 37.24 42.96 43.77 43.08 49.19 50.59 52.51 52.91 53.45 54.84 55.96
60.66 58.74 63.39 65.22 63.06 57.42 51.56 53.27 54.64 55.64 54.91 52.25 51.68 51.54 51.73 51.02 51.95 50.74 50.54 53.91 54.95 54.21 54.93 52.88 50.31 49.22 52.88 50.49 49.63 49.61 48.67 48.73 48.85 46.05 39.65 38.32 41.90 51.28 50.17 50.78 50.85 52.08 52.99 53.73 54.39
59.75 53.80 63.63 63.80 53.38 54.81 52.31 54.91 50.89 54.42 55.07 53.76 53.96 52.89 52.04 52.57 51.18 50.76 50.39 53.27 55.28 53.93 49.79 53.71 51.96 47.03 48.56 53.26 54.79 52.38 49.89 49.53 43.75 42.29 44.76 44.16 43.50 52.50 51.85 51.99 52.24 51.98 53.00 54.00 54.44
55.07 54.70 60.87 60.15 48.87 51.44 55.32 54.08 53.95 53.29 53.54 53.32 52.79 53.83 54.76 51.90 49.36 51.39 51.46 54.70 54.90 53.07 52.26 53.65 50.23 43.95 46.30 49.70 52.76 50.22 51.56 50.12 49.37 48.22 42.60 39.75 42.13 52.58 52.04 52.16 52.67 51.79 52.42 53.20 54.00
55.71 50.78 56.08 57.20 55.74 54.13 53.39 52.51 51.89 54.76 53.19 54.13 53.48 54.41 52.94 51.42 53.13 50.30 51.02 53.94 54.92 53.71 52.86 54.43 49.76 46.31 42.23 45.67 49.22 47.25 49.09 49.73 48.42 44.15 43.11 43.47 44.98 48.72 48.69 50.01 51.36 51.86 52.34 52.31 52.70
57.22 53.20 55.67 49.50 53.13 53.46 52.92 52.30 50.60 50.97 54.04 53.92 52.02 52.10 51.29 49.27 50.66 50.63 52.50 53.17 54.28 52.49 52.28 53.46 46.84 48.83 49.06 50.01 50.05 48.94 47.83 47.85 46.31 46.79 43.58 45.09 45.36 48.18 50.26 50.36 51.06 51.30 51.24 50.88 51.68
53.72 53.61 55.88 52.81 52.79 51.38 48.74 50.10 48.97 50.81 51.70 50.83 51.05 52.11 52.66 50.94 51.41 50.06 52.20 52.71 51.42 53.66 53.21 54.34 47.77 49.34 46.68 49.23 49.09 46.95 48.37 47.25 46.36 46.34 46.21 46.77 45.81 51.54 52.05 51.42 49.83 50.25 51.32 50.69 50.37
58.71 57.91 53.82 49.97 51.67 50.51 49.76 50.29 50.62 52.55 53.16 53.40 52.45 51.79 51.39 53.27 55.45 55.76 55.45 54.59 53.71 51.64 51.05 51.46 49.53 46.45 41.87 47.65 47.18 43.82 46.30 47.48 47.77 48.27 47.49 43.61 47.44 50.27 48.91 48.57 49.95 50.07 49.41 48.80 49.05
MSLP
1016.69 1016.57 1016.44 1016.33 1016.18 1015.99 1015.79 1015.62 1015.46 1015.31 1015.11 1014.79 1014.44 1014.14 1013.92 1013.55 1012.74 1012.42 1010.70 1009.81 1009.52 1009.49 1009.42 1008.48 1007.18 1006.88 1006.46 1005.77 1004.70 1003.94 1003.47 1002.18 1001.26 1000.86 1000.96 1002.04 1003.13 1004.46 1004.90 1004.59 1005.12 1005.72 1006.61 1007.40 1007.73
1016.66 1016.51 1016.37 1016.25 1016.14 1016.00 1015.86 1015.71 1015.47 1015.18 1014.88 1014.54 1014.19 1013.90 1013.76 1013.52 1012.16 1010.40 1009.51 1009.35 1009.45 1009.44 1008.96 1007.60 1006.29 1006.02 1005.56 1005.07 1004.23 1003.81 1003.09 1001.72 1001.20 1001.01 1000.95 1001.36 1002.22 1004.33 1004.64 1004.58 1004.79 1006.06 1007.14 1007.55 1007.64
1016.69 1016.55 1016.41 1016.26 1016.11 1015.97 1015.82 1015.60 1015.30 1014.98 1014.65 1014.31 1013.95 1013.76 1013.69 1013.39 1011.36 1008.73 1009.17 1008.97 1009.30 1009.46 1008.87 1007.63 1006.21 1005.18 1004.74 1003.89 1003.46 1003.16 1002.54 1001.70 1001.39 1001.30 1001.46 1001.27 1001.98 1003.14 1003.43 1003.63 1004.11 1005.33 1006.68 1007.35 1007.78
1016.68 1016.49 1016.30 1016.15 1016.01 1015.83 1015.63 1015.37 1015.04 1014.74 1014.44 1014.11 1013.78 1013.61 1013.37 1012.52 1009.66 1008.64 1008.78 1008.90 1009.22 1009.14 1008.38 1006.65 1005.91 1004.98 1004.08 1003.03 1002.58 1002.59 1002.28 1001.86 1001.84 1001.98 1002.08 1001.68 1001.98 1002.75 1003.69 1004.58 1004.63 1005.46 1006.33 1007.18 1007.57
1016.54 1016.31 1016.13 1015.96 1015.78 1015.59 1015.41 1015.15 1014.85 1014.53 1014.24 1013.93 1013.66 1013.54 1012.34 1010.70 1008.15 1008.38 1008.53 1008.72 1008.74 1008.40 1007.30 1005.64 1004.94 1004.41 1003.40 1002.34 1002.19 1002.42 1002.12 1002.02 1002.45 1002.66 1002.25 1002.09 1002.29 1002.89 1003.99 1005.08 1005.34 1005.74 1006.46 1007.06 1007.49
1016.46 1016.19 1015.97 1015.75 1015.55 1015.38 1015.18 1014.94 1014.67 1014.34 1014.00 1013.77 1013.69 1013.52 1012.29 1009.24 1006.98 1007.45 1007.69 1007.62 1007.25 1006.72 1005.70 1004.99 1004.35 1003.78 1003.20 1002.56 1002.21 1002.16 1002.04 1002.43 1002.74 1002.84 1002.81 1003.10 1003.14 1003.53 1004.49 1005.34 1005.68 1006.14 1006.60 1006.99 1007.57
1016.38 1016.03 1015.76 1015.56 1015.39 1015.16 1014.95 1014.73 1014.41 1014.07 1013.73 1013.51 1013.70 1012.93 1010.80 1007.79 1006.76 1006.84 1007.22 1006.90 1006.48 1006.24 1005.59 1005.01 1004.95 1004.51 1003.61 1002.95 1002.65 1002.61 1002.73 1002.78 1002.94 1002.97 1003.34 1003.69 1003.69 1003.74 1004.90 1005.66 1005.95 1006.40 1006.72 1007.12 1007.97
1016.35 1016.00 1015.67 1015.42 1015.18 1014.90 1014.64 1014.38 1014.05 1013.71 1013.40 1013.16 1013.51 1012.49 1009.43 1006.99 1006.96 1006.83 1006.65 1006.41 1006.36 1006.17 1006.00 1005.75 1005.51 1004.88 1004.08 1003.14 1003.09 1003.22 1002.90 1002.64 1002.38 1002.86 1003.50 1004.31 1003.90 1003.38 1004.57 1005.53 1005.95 1006.16 1006.62 1007.36 1008.13
1016.22 1015.85 1015.53 1015.23 1014.93 1014.63 1014.36 1014.03 1013.57 1013.26 1013.05 1012.96 1012.70 1011.25 1007.62 1007.35 1007.05 1006.52 1006.59 1006.15 1005.72 1005.82 1005.89 1005.90 1005.80 1005.00 1004.00 1003.67 1003.39 1003.07 1002.62 1002.15 1001.79 1002.22 1003.07 1003.88 1004.06 1004.43 1005.12 1005.48 1005.77 1005.97 1006.47 1007.15 1008.27
1016.14 1015.76 1015.39 1015.02 1014.66 1014.43 1014.10 1013.79 1013.13 1012.86 1012.28 1011.68 1010.85 1009.86 1007.07 1006.22 1006.35 1006.66 1006.51 1006.64 1006.12 1005.68 1005.50 1005.55 1005.45 1004.86 1003.96 1003.39 1002.79 1002.00 1001.94 1001.55 1001.57 1001.93 1003.00 1003.39 1003.79 1004.49 1005.19 1005.41 1005.64 1005.98 1006.19 1006.90 1008.03
1016.09 1015.63 1015.22 1014.81 1014.46 1014.39 1013.50 1012.97 1012.81 1011.72 1010.54 1008.83 1007.73 1007.17 1006.36 1006.30 1006.68 1006.24 1006.17 1006.06 1005.77 1005.54 1005.12 1004.55 1004.45 1003.98 1003.31 1003.01 1002.72 1002.29 1002.10 1001.92 1001.81 1002.48 1003.17 1003.45 1003.71 1003.69 1004.64 1005.28 1005.66 1005.70 1005.92 1006.48 1007.54
1016.01 1015.49 1015.02 1014.57 1014.15 1014.26 1014.07 1011.56 1009.77 1009.28 1008.50 1007.58 1007.13 1006.93 1006.57 1006.25 1005.74 1005.76 1006.07 1005.74 1005.07 1004.80 1004.17 1004.18 1003.55 1003.26 1003.11 1002.99 1003.07 1002.85 1002.72 1002.78 1002.68 1003.07 1003.63 1003.85 1004.01 1003.89 1003.92 1004.50 1005.27 1005.57 1005.86 1006.43 1007.53
1015.89 1015.36 1014.85 1014.35 1013.80 1013.39 1011.53 1009.89 1009.07 1008.71 1008.03 1006.53 1006.43 1006.09 1006.08 1006.17 1005.34 1005.20 1005.69 1005.10 1005.02 1004.60 1004.04 1003.76 1003.31 1003.54 1003.77 1003.71 1003.65 1003.54 1003.36 1002.97 1003.13 1003.39 1004.23 1004.66 1004.32 1003.99 1003.59 1004.17 1005.12 1005.85 1006.15 1006.70 1007.69
1015.78 1015.21 1014.75 1014.26 1013.76 1010.54 1009.47 1009.17 1008.49 1008.77 1007.77 1006.04 1005.93 1005.61 1005.82 1005.76 1005.55 1005.71 1005.59 1005.52 1004.80 1004.53 1004.26 1004.04 1003.61 1004.19 1004.15 1004.01 1003.74 1003.67 1003.96 1003.65 1003.81 1004.29 1004.32 1004.36 1003.71 1003.32 1003.14 1004.05 1005.20 1005.90 1006.66 1007.28 1008.17
1015.80 1015.12 1014.65 1014.61 1012.87 1009.67 1009.44 1008.82 1008.90 1009.09 1006.92 1005.46 1004.98 1005.19 1005.01 1005.27 1005.24 1005.53 1005.78 1005.42 1005.00 1004.78 1005.22 1004.24 1004.22 1004.44 1004.47 1004.19 1004.47 1004.42 1004.96 1005.31 1005.26 1005.31 1005.38 1005.20 1004.78 1003.54 1002.83 1004.43 1005.37 1006.28 1007.17 1007.89 1008.80
1015.80 1015.13 1014.66 1013.18 1012.34 1009.65 1009.01 1008.98 1009.28 1008.65 1006.05 1004.94 1004.80 1004.94 1005.10 1005.16 1005.15 1005.26 1005.61 1005.85 1005.55 1005.46 1005.14 1004.97 1004.96 1005.18 1004.87 1005.01 1005.42 1005.75 1005.96 1006.09 1005.96 1005.80 1005.80 1006.35 1007.16 1005.83 1004.66 1005.10 1005.63 1006.44 1007.46 1008.21 1008.87
1015.65 1014.86 1014.66 1012.42 1010.34 1009.56 1009.35 1008.97 1008.55 1007.04 1005.87 1004.69 1004.53 1004.76 1004.65 1004.53 1005.08 1005.33 1005.40 1005.50 1005.57 1005.59 1005.07 1005.16 1004.69 1005.16 1005.83 1005.74 1005.54 1005.99 1006.43 1006.38 1005.98 1005.66 1006.73 1007.59 1007.96 1007.38 1005.90 1005.81 1006.07 1006.52 1007.32 1008.09 1009.09
1015.10 1014.70 1012.64 1011.47 1010.16 1010.10 1009.71 1009.01 1007.91 1005.76 1005.23 1005.22 1005.19 1004.91 1004.93 1004.73 1005.38 1005.60 1006.02 1005.89 1005.37 1006.14 1006.13 1005.82 1005.32 1005.50 1005.93 1006.16 1006.19 1006.31 1006.98 1007.02 1006.84 1006.89 1007.08 1007.92 1007.44 1007.88 1007.99 1007.62 1007.73 1007.82 1008.17 1008.51 1009.53
1014.52 1012.81 1011.75 1010.35 1010.41 1010.38 1009.77 1008.30 1006.79 1006.29 1005.92 1006.01 1005.50 1005.40 1004.90 1005.10 1006.03 1005.94 1006.07 1005.97 1006.09 1007.25 1007.76 1007.37 1006.63 1006.65 1006.64 1006.69 1006.93 1006.65 1006.98 1007.64 1007.95 1007.90 1007.89 1007.66 1008.34 1008.68 1008.79 1008.76 1009.04 1009.35 1009.81 1009.92 1010.57
1015.16 1012.37 1010.12 1009.87 1010.22 1010.32 1009.69 1008.25 1007.03 1007.04 1007.15 1006.78 1006.47 1005.78 1005.49 1005.26 1006.06 1006.16 1005.97 1006.74 1007.24 1008.18 1008.77 1008.55 1007.89 1007.03 1006.49 1007.41 1007.27 1007.31 1007.58 1007.94 1008.28 1008.66 1008.66 1007.91 1008.47 1010.51 1009.48 1009.41 1009.55 1010.00 1010.46 1011.04 1011.58
1014.84 1011.51 1010.10 1009.83 1009.85 1009.93 1008.99 1007.54 1007.01 1007.41 1007.92 1007.59 1007.13 1006.78 1006.84 1006.75 1006.78 1007.07 1007.22 1008.11 1008.87 1009.09 1009.37 1009.43 1009.07 1008.27 1007.40 1007.30 1007.49 1007.28 1008.02 1009.17 1009.76 1010.42 1010.21 1009.63 1009.65 1010.24 1010.60 1010.79 1011.03 1011.13 1011.41 1011.82 1012.27
1014.51 1011.16 1009.93 1009.88 1009.79 1008.95 1008.24 1008.53 1008.79 1008.28 1008.25 1008.22 1008.28 1008.17 1008.00 1007.93 1008.10 1008.25 1008.18 1009.06 1010.20 1010.29 1010.36 1010.27 1010.18 1009.31 1008.37 1008.09 1008.69 1008.57 1008.51 1009.02 1009.78 1010.37 1010.52 1010.61 1010.68 1010.89 1011.26 1011.46 1011.88 1012.08 1012.29 1012.54 1012.92
1015.31 1011.83 1009.83 1010.20 1009.65 1008.75 1008.06 1008.54 1008.91 1008.70 1008.72 1008.63 1008.59 1008.61 1008.83 1009.04 1009.17 1009.14 1009.11 1010.13 1010.75 1011.05 1011.99 1012.23 1011.05 1010.38 1009.17 1009.36 1009.49 1009.47 1009.29 1009.33 1010.04 1010.71 1011.27 1011.41 1010.99 1011.17 1011.50 1012.18 1012.31 1012.59 1012.80 1013.07 1013.39
1016.06 1011.97 1010.00 1010.09 1010.04 1010.20 1009.64 1009.12 1008.81 1009.22 1009.54 1009.44 1009.61 1009.42 1009.58 1009.49 1009.44 1009.61 1009.68 1010.23 1011.18 1011.67 1012.83 1013.19 1012.58 1011.94 1010.88 1009.66 1009.95 1009.54 1009.78 1009.68 1010.43 1010.75 1010.93 1011.01 1011.00 1011.10 1013.28 1013.31 1013.10 1013.06 1013.41 1013.61 1013.99
1015.97 1013.01 1012.62 1011.23 1011.07 1011.35 1011.01 1010.52 1009.89 1009.39 1009.67 1010.01 1010.14 1009.88 1009.91 1009.82 1009.59 1009.39 1009.39 1009.89 1011.05 1012.36 1012.88 1013.15 1012.95 1012.40 1011.46 1010.51 1009.76 1009.23 1009.17 1009.41 1009.66 1009.90 1010.49 1011.46 1011.32 1012.51 1012.89 1013.27 1013.64 1013.82 1014.09 1014.42 1014.94
1015.98 1014.53 1013.66 1012.73 1012.29 1012.16 1011.76 1011.18 1010.60 1010.39 1010.20 1010.58 1010.54 1010.40 1010.43 1010.34 1010.35 1010.23 1010.34 1010.75 1011.26 1012.37 1012.45 1012.81 1013.12 1012.94 1012.12 1011.36 1010.44 1009.86 1009.50 1009.69 1009.88 1010.05 1010.33 1010.92 1011.90 1012.81 1013.25 1013.79 1014.37 1014.85 1015.42 1016.01 1016.76
1016.07 1015.54 1015.10 1013.83 1012.77 1012.34 1011.64 1011.29 1011.10 1011.58 1011.83 1011.50 1011.47 1011.59 1011.51 1011.46 1011.21 1011.17 1011.58 1012.05 1012.50 1012.75 1013.08 1013.42 1013.56 1013.71 1013.15 1012.45 1011.52 1010.76 1010.10 1010.28 1010.04 1010.90 1011.29 1011.72 1012.74 1013.50 1014.25 1014.85 1015.39 1016.42 1017.39 1017.85 1018.06
Wind_Speed
7 8 8 8 9 9 9 9 9 10 10 11 12 11 11 13 17 7 10 2 1 3 7 11 13 11 14 15 18 19 12 15 11 16 19 10 18 7 10 10 15 16 18 15 11
8 9 8 8 8 9 9 9 10 10 11 11 12 11 10 11 11 14 5 5 2 5 9 14 10 11 11 16 17 10 13 21 11 11 6 11 11 14 18 10 17 13 16 11 11
7 8 8 8 9 8 9 9 10 11 11 12 12 11 10 10 11 4 8 5 1 4 11 17 14 12 14 16 18 15 16 20 15 8 14 8 14 12 5 6 17 18 16 11 11
7 7 7 7 8 9 9 10 11 11 12 12 13 12 10 8 3 7 7 5 5 8 13 17 11 12 16 16 13 17 16 16 11 10 9 13 15 6 17 10 12 18 16 13 10
8 8 8 8 8 9 9 10 11 11 12 12 12 11 10 10 8 10 8 8 9 12 18 15 12 12 17 11 10 8 17 1 4 6 7 7 1 5 15 9 1 13 12 11 9
9 9 9 9 9 9 10 11 11 12 12 12 11 13 7 15 10 12 10 9 14 15 15 12 11 9 11 16 3 10 10 3 5 9 1 6 5 4 13 6 1 4 6 10 10
10 10 10 9 9 10 11 11 12 13 13 12 7 7 12 14 1 8 8 11 4 9 11 5 11 12 14 11 10 9 11 8 8 6 5 4 14 10 11 4 6 9 10 6 7
11 10 10 10 10 11 12 12 13 13 14 13 5 8 9 7 7 6 10 9 7 10 8 10 10 14 15 13 3 13 11 14 16 14 6 4 14 15 13 8 9 11 11 9 10
14 12 11 11 11 11 12 13 15 14 12 9 7 9 12 4 9 6 6 10 5 6 7 6 12 14 14 11 10 12 13 18 17 18 10 13 11 10 6 6 7 8 11 11 9
15 13 12 12 12 12 12 8 7 10 7 10 11 13 11 3 4 4 5 6 7 9 9 9 9 12 12 10 13 16 17 14 15 15 7 13 10 12 9 8 9 9 10 11 11
16 13 12 12 12 10 12 5 6 7 13 13 1 11 1 4 5 8 4 9 10 9 11 14 11 13 16 15 16 18 14 16 10 11 8 7 12 13 13 8 9 12 13 12 13
17 14 13 13 12 6 6 8 7 9 7 19 5 8 3 5 5 5 3 10 9 11 15 7 13 13 7 10 13 17 10 16 2 8 3 6 14 14 14 10 9 9 9 8 15
18 15 13 13 14 5 14 6 7 6 7 9 9 9 7 8 5 4 4 9 9 13 10 11 13 5 8 10 10 14 14 17 11 7 2 9 16 19 19 11 8 9 6 7 13
20 16 13 13 4 10 1 6 7 4 7 11 9 5 4 7 6 4 4 7 6 7 12 9 5 8 8 10 12 13 11 15 7 11 11 14 15 17 9 15 11 7 6 6 8
21 18 13 3 11 8 8 7 10 3 6 12 12 7 7 9 4 9 2 8 9 12 2 10 4 3 9 8 9 11 10 12 14 14 17 18 15 16 18 14 13 7 7 6 9
23 18 16 5 7 9 8 6 5 7 4 8 6 8 9 10 6 6 4 2 4 8 8 12 3 7 10 9 8 11 14 15 16 15 14 5 11 15 5 5 11 12 9 7 9
24 20 9 9 9 10 9 7 7 9 8 8 6 6 10 9 5 3 6 7 8 5 12 3 16 7 2 10 11 9 10 10 12 11 8 5 4 12 16 8 5 15 12 10 10
28 17 8 10 8 9 8 7 9 8 4 7 5 4 9 3 4 5 7 10 12 4 9 11 7 4 5 4 8 11 7 9 15 13 9 7 6 8 13 15 14 13 12 9 11
28 6 8 9 6 6 8 8 10 12 9 7 9 7 12 10 5 8 9 12 3 8 8 9 8 3 6 5 7 8 7 8 9 13 14 12 6 10 6 9 11 10 9 8 6
8 9 10 4 3 6 8 14 14 4 6 6 10 9 10 8 7 4 10 7 4 6 7 8 14 15 7 1 8 11 10 9 7 9 12 12 10 1 3 10 12 12 10 11 9
5 6 6 5 3 7 9 12 5 10 7 5 9 11 8 10 11 7 10 12 9 8 8 12 12 14 16 2 12 4 8 3 4 4 11 11 5 9 8 8 7 9 12 8 7
7 7 6 5 7 8 12 10 4 8 1 5 3 9 9 10 7 11 13 9 5 8 8 10 6 10 17 9 12 13 15 12 8 10 9 8 5 10 5 8 5 7 6 10 11
7 9 0 3 7 9 5 5 1 5 6 4 5 2 8 5 5 8 6 9 7 8 9 11 4 8 9 8 7 7 11 2 5 4 8 10 8 9 5 11 11 10 10 11 12
7 6 4 4 4 7 11 5 8 6 6 7 10 10 6 10 8 5 9 6 5 4 4 1 7 12 12 16 8 7 11 10 7 6 9 11 15 8 12 3 6 10 10 12 13
6 3 5 6 9 9 8 11 12 10 7 5 5 10 9 10 11 11 8 7 10 9 3 3 8 13 16 18 18 16 13 14 15 13 10 14 10 13 12 9 10 15 16 15 15
8 6 8 9 5 9 6 9 12 10 5 7 13 6 11 8 9 11 11 9 5 5 2 2 8 12 14 18 16 17 13 11 14 15 11 8 6 11 11 15 16 15 16 16 16
7 6 5 9 8 8 10 9 5 8 9 9 9 9 11 11 11 10 7 6 8 8 10 10 7 8 13 16 17 12 8 8 5 6 6 5 8 7 11 14 14 15 15 14 14
Wind_Direction
325 323 320 317 315 314 315 315 311 306 304 303 306 307 314 316 299 221 246 18 13 10 331 274 252 242 235 255 255 249 269 270 296 300 210 135 126 91 151 158 80 84 91 121 133
324 323 320 317 313 311 310 307 304 305 306 305 304 309 320 328 287 259 165 150 102 25 278 258 235 213 236 233 246 232 253 266 318 304 113 159 154 144 179 198 123 110 112 140 142
323 317 316 315 313 310 308 306 305 305 306 306 305 309 309 307 275 195 186 110 123 271 268 277 297 271 235 222 227 225 255 277 333 12 330 328 123 128 261 140 146 141 134 154 155
327 320 317 314 309 307 305 304 304 305 304 304 305 313 304 253 320 115 153 171 203 263 263 258 233 250 248 240 237 224 241 264 340 6 283 282 123 156 76 46 57 123 141 152 179
336 327 319 314 308 304 302 301 301 299 299 300 308 328 313 243 237 142 158 201 231 234 246 263 239 235 256 251 232 249 275 63 339 297 284 340 340 104 99 83 3 114 140 148 164
341 331 322 316 311 305 301 299 297 295 294 295 311 318 251 271 95 143 211 203 244 226 280 265 287 314 301 291 231 254 254 163 253 260 284 306 261 184 107 110 152 137 168 166 150
341 332 324 317 309 303 298 293 290 289 288 287 307 295 273 267 344 153 211 242 311 298 291 334 324 307 258 294 274 312 278 217 226 245 267 286 271 163 113 142 212 177 214 155 132
340 329 319 311 302 295 291 290 286 283 285 280 271 276 263 40 328 206 249 245 226 259 265 301 301 288 280 286 324 256 239 257 212 208 166 185 267 208 138 172 214 197 210 190 167
339 330 319 310 298 291 293 294 284 281 260 282 255 214 268 126 215 231 303 280 298 273 267 280 270 271 269 258 247 225 249 232 268 171 198 185 265 104 130 180 224 214 206 182 183
338 328 318 308 299 302 298 275 309 298 222 248 257 273 244 84 92 328 269 273 263 264 253 237 241 250 245 238 246 238 221 229 245 172 185 242 217 145 182 215 217 234 227 194 185
339 329 318 308 301 312 310 220 209 206 231 258 278 247 160 128 181 217 186 226 245 241 262 219 233 237 248 246 254 283 309 308 308 116 179 199 256 206 179 190 249 255 229 204 173
341 332 320 310 305 304 266 261 30 317 274 224 267 285 300 337 226 181 230 244 233 268 232 269 244 261 330 343 324 312 298 275 194 136 191 278 276 268 278 184 240 266 253 235 149
343 334 324 315 313 257 242 4 300 292 269 167 210 231 191 232 292 121 265 307 269 280 264 269 305 61 334 299 271 271 262 270 323 93 147 258 262 267 246 173 201 244 244 229 148
343 336 329 322 293 248 246 340 295 30 270 150 189 210 174 241 210 6 313 293 276 291 346 279 32 5 301 273 275 273 4 336 329 305 289 274 299 243 235 168 175 194 211 194 152
341 335 326 317 313 322 348 334 348 248 279 163 148 97 218 230 102 161 309 274 278 332 321 301 345 259 272 318 5 304 13 320 306 293 289 280 274 271 258 159 155 166 164 169 151
338 331 331 183 231 283 323 344 255 236 306 142 153 200 196 219 203 131 228 257 305 295 271 283 45 290 301 348 315 324 304 290 284 265 256 4 15 324 32 64 124 172 168 186 149
333 323 309 311 312 344 326 273 239 249 199 154 198 182 231 189 209 225 288 242 278 282 292 249 256 148 19 290 262 222 269 285 272 261 235 14 154 241 178 162 20 147 164 173 129
326 318 244 270 318 344 295 250 264 261 254 30 343 307 270 279 178 253 270 274 277 299 312 316 302 121 139 297 324 315 233 277 311 306 332 246 241 86 47 44 37 39 27 131 118
312 253 248 221 325 315 285 244 241 354 22 354 313 242 260 188 208 290 240 266 355 46 337 321 292 255 245 309 305 303 295 9 282 284 284 313 66 8 2 82 65 53 22 31 71
317 291 263 107 18 289 267 269 293 37 328 293 279 315 309 328 190 269 279 61 41 73 349 303 297 299 123 319 267 251 302 309 287 310 285 302 10 169 64 53 38 35 56 41 16
275 262 93 305 279 259 257 270 349 81 335 320 314 322 306 296 324 317 293 81 40 355 349 294 283 288 292 253 329 167 258 11 287 269 315 302 53 75 62 50 29 11 21 22 360
298 274 87 325 271 241 253 358 353 309 331 288 275 288 306 321 322 312 310 61 39 8 323 344 317 298 301 283 251 316 304 305 285 294 310 323 275 115 70 65 45 16 3 15 357
295 300 182 296 263 268 248 257 46 307 275 304 294 314 318 302 308 294 310 87 49 14 22 353 280 297 290 70 332 303 293 236 276 282 282 290 285 1 33 14 18 8 359 352 360
278 294 191 211 282 300 326 296 260 150 287 287 293 312 300 288 268 235 291 108 131 107 108 338 281 275 280 300 249 219 266 268 247 279 268 266 298 163 85 232 336 6 5 344 351
254 324 21 304 44 339 325 311 307 285 169 287 290 272 269 288 292 287 276 167 171 139 205 222 289 291 290 292 301 302 289 274 280 274 242 265 289 28 25 9 359 2 348 348 11
296 348 357 294 298 293 284 273 268 277 319 283 290 284 309 303 295 293 346 6 339 189 260 244 280 291 285 281 276 300 305 304 281 276 284 312 45 4 18 14 356 2 12 7 4
5 301 264 292 276 250 266 291 289 17 322 285 314 322 292 5 349 20 17 330 297 298 303 304 279 293 292 304 320 301 307 335 14 5 345 322 39 41 19 1 27 32 20 355 354